Vorticity
4 4 5 5 6 7 10 9 8 7 8 7 8 6 5 5 7 8 5 7 5 9 5 -2 17 6 8 14 17 12 2 -3 10 18 7 17 14 14 7 6 10 9 5 10 14 -18 23
5 5 4 4 4 5 8 11 8 8 8 8 7 8 1 5 7 3 4 4 5 7 5 -3 2 12 3 25 14 16 8 11 16 9 16 16 7 9 6 14 8 7 15 10 8 27 0
4 5 5 5 5 5 5 8 11 8 9 8 7 8 10 2 3 1 1 2 3 4 4 8 2 15 13 21 21 7 14 14 13 16 18 12 9 6 13 1 26 -3 12 15 21 10 13
5 4 5 6 5 5 5 5 10 9 8 10 7 7 10 10 7 2 2 0 1 4 3 8 7 2 30 -2 23 17 6 13 6 7 14 9 5 7 5 11 1 19 0 15 -0 22 21
6 5 4 5 6 6 5 5 6 10 9 9 8 6 10 12 12 11 8 3 4 5 9 8 15 -4 21 -0 24 10 12 12 9 12 4 18 12 7 2 0 6 -1 6 15 21 9 1
5 6 5 4 5 6 6 6 5 7 10 9 8 8 8 11 14 12 11 8 6 8 20 3 5 35 -6 16 46 15 1 16 8 10 14 5 15 4 27 11 1 -14 11 10 16 26 22
4 4 5 6 5 6 6 6 5 5 9 9 11 7 8 10 14 11 12 8 10 16 12 11 9 11 8 7 35 20 11 6 3 10 6 10 12 5 7 10 15 -16 17 10 18 13 20
4 4 4 5 6 6 6 6 6 6 7 10 11 8 7 11 15 10 11 10 9 10 10 8 18 23 13 12 22 14 10 7 5 5 14 23 12 11 34 10 1 7 -11 10 22 17 6
3 4 4 4 5 5 6 6 7 6 6 9 10 9 6 11 13 12 10 10 9 10 15 -8 -7 -1 26 11 20 29 13 8 6 1 0 6 2 17 35 6 23 15 -6 14 19 15 15
3 4 4 4 4 5 6 7 6 7 6 8 10 10 7 9 16 13 9 7 8 8 20 -1 -1 -7 -1 9 -13 34 26 1 4 18 6 14 22 2 8 37 -5 5 -9 -5 23 -16 5
3 3 4 4 4 4 5 6 7 7 7 8 10 10 9 9 13 15 9 9 4 16 15 3 4 2 3 9 7 -8 1 35 11 3 -4 2 11 15 4 12 6 34 9 7 20 7 6
4 2 3 4 4 4 5 5 6 7 7 8 10 10 9 7 11 12 13 9 8 20 9 7 0 -2 5 11 9 11 12 3 24 30 21 11 -13 21 13 39 12 28 11 23 7 14 12
6 4 2 3 4 4 4 5 5 6 7 8 9 10 10 6 9 11 12 8 19 11 -1 2 0 3 6 13 5 11 11 14 8 14 12 23 13 6 13 14 8 -1 7 11 9 11 4
6 5 3 3 3 4 5 5 5 6 7 7 8 9 8 7 8 9 11 7 15 -1 6 6 10 13 13 12 10 -2 10 11 21 -4 11 10 15 7 22 3 18 -1 -7 2 9 8 17
5 6 5 3 3 4 4 5 6 5 6 7 9 9 7 5 5 8 10 19 4 3 2 4 17 16 12 6 11 16 8 20 9 12 2 19 15 13 27 6 12 28 10 1 2 12 9
7 6 5 4 2 3 4 5 6 5 5 7 8 8 9 8 3 8 7 5 10 7 5 11 14 7 -2 6 17 13 15 11 9 7 14 5 10 10 12 11 2 0 -0 9 17 12 9
7 6 7 4 4 2 3 6 6 6 5 5 7 9 9 10 10 6 7 7 4 11 9 11 -0 7 7 12 7 15 4 13 7 16 12 13 6 11 6 10 16 21 15 4 -12 2 4
8 7 6 6 4 3 2 6 6 6 5 5 3 9 6 6 10 3 7 5 6 8 9 8 12 10 10 5 21 18 1 9 17 16 13 6 10 8 9 8 11 33 17 7 -10 26 5
12 7 7 7 6 4 3 4 7 6 6 5 5 5 4 8 5 8 9 9 6 16 8 3 1 9 8 8 15 6 15 9 14 13 9 16 14 -0 5 30 33 -21 4 -18 -11 -16 19
18 12 7 8 6 4 5 2 8 7 5 4 7 5 6 11 9 7 10 14 16 11 12 13 6 7 8 13 9 -0 8 12 12 17 10 10 12 -5 -5 4 33 16 20 13 22 3 22
15 11 6 10 6 7 4 5 6 8 5 4 5 7 8 -10 0 11 10 -4 6 10 14 7 11 8 9 14 14 8 14 15 7 14 14 7 13 15 9 17 18 12 30 15 9 12 4
14 21 14 9 10 6 2 7 9 7 5 4 4 4 8 8 6 9 8 8 10 9 12 11 10 10 9 10 9 9 10 8 10 9 13 12 7 8 13 13 13 11 19 13 11 12 46
15 8 10 13 13 8 7 7 8 8 5 5 7 7 7 7 13 10 9 10 6 9 16 8 11 9 10 9 8 12 13 12 10 9 10 10 12 9 11 11 12 11 11 12 6 7 8
23 22 28 -1 14 9 8 7 8 8 6 5 6 9 7 9 9 11 7 11 9 8 6 7 8 9 7 9 9 16 10 8 14 12 10 9 12 11 9 13 7 11 16 8 13 17 9
22 31 22 21 21 9 10 9 10 8 5 5 6 10 8 9 10 12 10 9 9 8 8 8 6 6 9 8 15 18 14 12 6 11 12 8 10 12 9 12 13 12 18 25 2 19 14
39 36 23 18 27 8 9 13 11 7 5 6 7 10 8 9 13 11 12 10 7 8 8 9 11 7 6 10 12 7 11 7 12 11 12 9 5 9 8 10 6 17 7 2 6 10 12
10 16 27 -12 17 8 10 15 8 6 6 7 8 9 9 8 0 11 13 12 10 10 7 5 7 13 11 12 10 13 11 8 14 11 10 9 9 10 12 10 13 15 19 6 5 28 -2
12 43 -21 23 17 10 11 10 6 6 7 7 8 8 7 6 2 15 15 11 9 8 8 5 11 20 13 16 10 10 10 10 11 7 8 8 11 11 10 12 10 16 2 8 8 -6 0
14 37 15 25 11 8 10 10 10 6 7 9 9 7 8 9 10 12 8 7 8 10 9 9 -0 -4 -2 -0 -2 5 -2 4 -5 10 9 15 9 1 7 10 5 2 -3 -4 7 3 0
Height
3142 3141 3141 3139 3137 3135 3132 3130 3128 3125 3122 3120 3118 3117 3115 3114 3112 3110 3108 3106 3101 3097 3093 3088 3083 3079 3076 3074 3072 3070 3070 3070 3071 3071 3072 3075 3076 3079 3079 3081 3085 3085 3088 3090 3099 3106 3107
3144 3142 3141 3139 3137 3134 3132 3130 3127 3124 3120 3119 3117 3115 3114 3113 3110 3109 3107 3104 3100 3096 3092 3087 3082 3078 3075 3072 3068 3067 3067 3067 3068 3069 3069 3071 3074 3076 3077 3078 3081 3083 3084 3088 3092 3098 3103
3142 3142 3140 3138 3135 3134 3132 3130 3126 3123 3120 3117 3114 3113 3113 3111 3108 3107 3104 3102 3098 3094 3089 3085 3080 3076 3073 3070 3065 3065 3064 3064 3065 3066 3067 3070 3072 3075 3075 3077 3078 3079 3081 3083 3087 3093 3097
3141 3140 3139 3138 3135 3132 3131 3128 3125 3122 3119 3116 3112 3111 3111 3109 3106 3105 3102 3100 3096 3092 3088 3083 3079 3074 3070 3067 3064 3062 3063 3063 3063 3064 3065 3068 3070 3072 3073 3076 3077 3077 3079 3080 3083 3089 3093
3139 3138 3137 3137 3135 3132 3129 3127 3124 3121 3118 3115 3111 3110 3108 3106 3104 3102 3100 3097 3094 3090 3087 3082 3078 3073 3068 3066 3062 3060 3060 3061 3062 3063 3064 3065 3068 3067 3071 3073 3075 3076 3073 3075 3079 3084 3089
3136 3136 3135 3134 3133 3132 3129 3126 3124 3120 3117 3114 3111 3108 3106 3103 3101 3099 3097 3094 3091 3088 3085 3081 3076 3074 3068 3062 3056 3057 3059 3060 3061 3062 3063 3064 3065 3066 3065 3069 3069 3071 3073 3075 3076 3082 3084
3133 3133 3132 3132 3130 3129 3128 3125 3122 3120 3116 3114 3109 3106 3104 3102 3099 3096 3095 3092 3091 3088 3084 3081 3077 3072 3067 3062 3057 3057 3058 3059 3060 3060 3061 3061 3062 3061 3063 3066 3067 3069 3072 3073 3075 3080 3082
3131 3130 3129 3128 3128 3127 3126 3124 3121 3118 3115 3112 3108 3105 3102 3100 3097 3095 3093 3090 3088 3086 3083 3080 3076 3071 3067 3062 3059 3058 3058 3060 3059 3059 3059 3060 3057 3059 3060 3062 3065 3068 3070 3071 3074 3077 3079
3128 3128 3126 3124 3124 3124 3123 3122 3120 3117 3114 3111 3108 3104 3100 3099 3095 3093 3091 3089 3086 3084 3082 3079 3076 3073 3069 3065 3060 3057 3059 3058 3058 3058 3058 3057 3057 3056 3055 3058 3061 3065 3069 3071 3074 3075 3077
3125 3125 3124 3123 3121 3119 3119 3119 3117 3115 3113 3109 3106 3103 3099 3098 3096 3092 3090 3087 3085 3083 3080 3080 3076 3074 3071 3068 3064 3059 3057 3059 3057 3057 3056 3056 3055 3055 3055 3056 3060 3063 3067 3071 3072 3075 3075
3122 3122 3121 3120 3118 3116 3115 3115 3115 3113 3111 3108 3105 3102 3098 3096 3094 3091 3090 3087 3085 3084 3083 3079 3075 3073 3070 3069 3066 3062 3059 3056 3055 3055 3057 3056 3054 3053 3052 3053 3056 3060 3066 3069 3070 3073 3075
3118 3118 3117 3117 3116 3114 3112 3111 3111 3111 3109 3107 3103 3101 3098 3096 3093 3090 3088 3086 3085 3086 3079 3077 3074 3071 3069 3066 3064 3061 3060 3057 3054 3052 3052 3053 3053 3053 3052 3049 3049 3057 3064 3067 3070 3073 3073
3113 3113 3114 3112 3113 3112 3109 3108 3108 3107 3106 3105 3102 3099 3097 3094 3093 3089 3088 3086 3086 3082 3080 3077 3073 3071 3068 3065 3063 3060 3059 3056 3055 3053 3051 3051 3053 3053 3053 3052 3054 3059 3063 3067 3072 3073 3068
3106 3107 3108 3109 3108 3109 3107 3105 3104 3104 3104 3103 3102 3098 3097 3094 3092 3089 3088 3087 3083 3079 3078 3075 3072 3069 3066 3064 3062 3060 3058 3056 3055 3053 3051 3052 3054 3054 3053 3055 3057 3060 3063 3063 3066 3069 3062
3100 3101 3102 3103 3104 3104 3105 3102 3101 3100 3101 3100 3099 3096 3095 3092 3091 3089 3088 3085 3081 3078 3077 3074 3071 3068 3067 3065 3063 3060 3057 3056 3056 3055 3055 3051 3052 3052 3053 3054 3058 3059 3061 3063 3063 3063 3063
3092 3094 3096 3098 3099 3099 3100 3100 3097 3097 3097 3098 3097 3094 3093 3091 3089 3087 3086 3084 3080 3078 3076 3074 3071 3068 3065 3063 3061 3059 3057 3056 3055 3054 3054 3054 3054 3054 3054 3055 3057 3057 3062 3063 3063 3063 3062
3082 3085 3088 3091 3093 3094 3095 3096 3095 3094 3092 3095 3094 3092 3091 3089 3088 3086 3083 3081 3079 3077 3075 3074 3070 3068 3066 3063 3061 3058 3057 3056 3054 3053 3054 3054 3054 3056 3055 3055 3055 3057 3057 3059 3062 3062 3057
3070 3075 3079 3083 3086 3088 3090 3091 3091 3090 3090 3090 3091 3089 3087 3086 3086 3083 3081 3079 3078 3075 3073 3071 3069 3067 3065 3062 3059 3057 3056 3055 3053 3053 3053 3054 3055 3055 3055 3053 3053 3052 3054 3055 3062 3057 3053
3057 3063 3068 3073 3076 3080 3083 3085 3088 3086 3085 3086 3086 3086 3084 3083 3082 3080 3079 3077 3075 3073 3072 3069 3068 3066 3064 3062 3060 3057 3055 3054 3052 3052 3053 3053 3054 3056 3055 3056 3054 3052 3052 3052 3055 3056 3050
3044 3051 3057 3063 3068 3071 3075 3078 3081 3082 3081 3081 3083 3081 3080 3079 3078 3077 3077 3074 3073 3071 3070 3068 3066 3065 3063 3060 3059 3057 3054 3053 3052 3051 3051 3052 3051 3051 3050 3048 3048 3048 3047 3050 3054 3053 3045
3030 3036 3044 3049 3057 3061 3066 3070 3074 3076 3077 3076 3076 3076 3076 3075 3075 3074 3074 3072 3071 3069 3068 3066 3064 3063 3062 3059 3057 3055 3053 3052 3051 3049 3049 3050 3049 3048 3047 3046 3046 3047 3046 3048 3049 3049 3045
3016 3021 3030 3037 3044 3050 3056 3059 3065 3068 3069 3070 3070 3072 3072 3071 3071 3071 3071 3070 3068 3067 3066 3065 3063 3061 3060 3058 3057 3054 3053 3051 3050 3049 3048 3048 3047 3046 3045 3045 3045 3046 3046 3047 3048 3046 3042
3000 3005 3014 3022 3030 3037 3044 3051 3056 3059 3061 3061 3064 3066 3067 3066 3067 3067 3067 3068 3066 3065 3064 3063 3062 3060 3059 3057 3055 3053 3051 3050 3049 3048 3047 3046 3046 3045 3044 3043 3044 3045 3044 3045 3046 3048 3049
2984 2989 2997 3007 3016 3023 3032 3040 3047 3051 3053 3056 3059 3061 3062 3061 3062 3063 3063 3064 3063 3063 3062 3061 3060 3059 3059 3056 3054 3052 3051 3049 3048 3047 3047 3046 3045 3045 3043 3043 3046 3043 3043 3045 3047 3049 3051
2966 2972 2982 2990 3001 3009 3019 3029 3036 3043 3046 3049 3052 3055 3056 3056 3058 3058 3060 3060 3060 3060 3059 3058 3058 3057 3055 3054 3053 3051 3050 3050 3048 3047 3047 3046 3046 3045 3044 3043 3045 3044 3044 3046 3048 3050 3051
2948 2954 2964 2976 2986 2997 3008 3017 3026 3033 3038 3042 3045 3048 3051 3052 3053 3054 3055 3056 3057 3057 3056 3056 3056 3055 3054 3053 3052 3050 3049 3048 3048 3047 3046 3046 3046 3047 3045 3044 3045 3045 3046 3047 3048 3051 3052
2931 2939 2949 2963 2975 2986 2998 3008 3019 3025 3030 3035 3038 3042 3045 3047 3048 3050 3050 3052 3053 3054 3054 3053 3053 3053 3052 3051 3050 3049 3048 3048 3047 3046 3046 3046 3045 3045 3044 3044 3045 3046 3047 3049 3051 3057 3053
2913 2923 2936 2948 2965 2978 2990 3001 3011 3018 3024 3028 3032 3035 3040 3041 3043 3044 3046 3048 3049 3050 3051 3052 3053 3051 3050 3050 3050 3049 3048 3047 3047 3047 3046 3046 3046 3045 3045 3044 3047 3047 3048 3051 3052 3052 3053
2901 2918 2933 2946 2961 2973 2984 2995 3004 3011 3017 3022 3026 3030 3033 3036 3038 3039 3041 3043 3045 3046 3048 3048 3050 3049 3049 3049 3050 3048 3048 3047 3046 3047 3046 3047 3047 3047 3048 3047 3047 3047 3048 3049 3049 3049 3049